Flag for Norway Weather past 2 weeks in Hammerfest, Norway

Now
23 °F

Passing clouds.


Feels Like: 17 °F
Forecast: 19 / 25 °F
Wind: 5 mph from Southeast

Location: Hammerfest

Current Time: Dec 19, 2014 at 7:55:42 AM

Latest Report: Dec 19, 2014 at 6:50 AM


Visibility: N/A

Pressure: 29.09 "Hg

Humidity: 63%

Dew point: 12 °F

Location of HammerfestLocation

Historic Weather in Hammerfest — Graph

°F

Hammerfest temperature yesterday

Maximum temperature yesterday: 28 °F (at 12:50 AM)
Minimum temperature yesterday: 19 °F (at 5:50 PM)
Average temperature yesterday: 24 °F

Past Weeks' High & Low Weather Summary

 TemperatureHumidityPressure
High43 °F (Dec 5, 11:50 AM)100% (Dec 7, 1:50 AM)29.77 "Hg (Dec 7, 1:50 AM)
Low19 °F (Dec 18, 5:50 PM)55% (Dec 10, 3:50 AM)28.82 "Hg (Dec 11, 1:50 AM)
Average32 °F79%29.17 "Hg
* Reported Dec 4 6:50 AM — Dec 19 6:50 AM, Hammerfest, Weather by CustomWeather, © 2014

Note: Actual official high and low records may vary slightly from our data, if they occured in-between our weather recording intervals... More about our weather records

Advertising

Hammerfest weather history for previous 24 hours

 ConditionsComfort  
Time TempWeatherWind HumidityBarometerVisibility
6:50 AM
Dec 19
23 °FPassing clouds.5 mph63%29.09 "HgN/A
4:50 AM25 °FPassing clouds.6 mph59%29.12 "HgN/A
3:50 AM23 °FClear.3 mph63%29.15 "Hg10 mi
2:50 AM23 °FPassing clouds.5 mph68%29.15 "HgN/A
1:50 AM23 °FClear.1 mph63%29.18 "Hg10 mi
12:50 AM23 °FPassing clouds.3 mph68%29.18 "HgN/A
11:50 PM
Dec 18
23 °FPassing clouds.3 mph68%29.18 "HgN/A
10:50 PM23 °FClear.5 mph74%29.21 "Hg10 mi
9:50 PM21 °FClear.5 mph80%29.21 "Hg10 mi
8:50 PM23 °FClear.2 mph80%29.21 "Hg10 mi
7:50 PM21 °FClear.1 mph86%29.21 "Hg10 mi
6:50 PM19 °FSunny.No wind93%29.24 "Hg10 mi
5:50 PM19 °FScattered clouds.1 mph93%29.24 "HgN/A
4:50 PM21 °FPartly sunny.No wind93%29.24 "HgN/A
3:50 PM21 °FScattered showers. Scattered clouds.1 mph93%29.27 "HgN/A
2:50 PM25 °FScattered showers. Scattered clouds.1 mph86%29.27 "HgN/A
1:50 PM27 °FSnow flurries. Scattered clouds.2 mph93%29.27 "Hg6 mi
12:50 PM25 °FSnow flurries. Partly sunny.1 mph93%29.30 "HgN/A
11:50 AM21 °FScattered showers. Scattered clouds.1 mph100%29.30 "HgN/A
10:50 AM23 °FScattered showers. Scattered clouds.2 mph93%29.30 "HgN/A
9:50 AM21 °FPassing clouds.No wind86%29.33 "HgN/A
8:50 AM27 °FPassing clouds.2 mph86%29.33 "HgN/A
7:50 AM27 °FSnow flurries. Broken clouds.5 mph100%29.33 "HgN/A
Weather by CustomWeather, © 2014

See weather overviewHow to use our weather pages